This demonstration page uses our WeatherBlox Daily Observations layout. Learn more.

Left ArrowRight Arrow

34.74481, -87.66753

Hourly Observations for February 25, 2018

Temp ( °F °C ) Dew Point ( °F °C ) Humidity (%) Winds ( mph kmh ) Pressure ( in mb ) Visibility ( mi km ) Precip ( " mm )
12:08 am 00:08 Cloudy with Nearby Thunderstorms 72 22.2 63 17.2 73 73 WSW 24 39 29.91 1013 10 16 0.00 0.00
12:13 am 00:13 Cloudy with Nearby Thunderstorms 66 18.9 57 13.9 73 73 WNW 23 37 29.91 1013 9 14 0.00 0.00
12:17 am 00:17 Cloudy with Thunderstorms 63 17.2 57 13.9 81 81 NW 21 33 29.91 1013 3 4 0.09 2.29
12:19 am 00:19 Cloudy with Strong Thunderstorms 62 16.7 57 13.9 84 84 WNW 23 37 29.91 1013 2 3 0.19 4.83
12:34 am 00:34 Cloudy with Strong Thunderstorms 60 15.6 56 13.3 86 86 NW 17 28 29.94 1014 3 5 0.41 10.41
12:39 am 00:39 Cloudy with Nearby Thunderstorms 59 15 56 13.3 90 90 NW 17 28 29.97 1015 3 5 0.45 11.43
12:43 am 00:43 Cloudy with Heavy Rain 59 15 56 13.3 90 90 NW 15 24 29.97 1015 3 5 0.46 11.68
12:51 am 00:51 Cloudy with Nearby Thunderstorms 59 15 55 13 88 88 WNW 14 22 29.97 1015 6 10 0.47 11.94
12:52 am 00:52 Cloudy with Nearby Thunderstorms 59 15 55 12.8 87 87 WNW 16 26 29.96 1015 7 11 0.47 11.94
1:02 am 01:02 Cloudy with Rain 57 13.9 52 11.1 83 83 WNW 24 39 29.97 1015 5 8 0.03 0.76
1:21 am 01:21 Cloudy with Rain 56 13.3 51 10.6 84 84 W 14 22 30.00 1016 4 6 0.08 2.03
1:53 am 01:53 Cloudy with Light Rain 55 12.8 51 10.6 87 87 W 8 13 29.98 1015 7 11 0.14 3.56
2:53 am 02:53 Cloudy with Light Rain 54 12.2 51 10.6 90 90 SW 6 9 29.98 1015 10 16 0.05 1.27
3:53 am 03:53 Cloudy with Light Rain 55 12.8 51 10.6 87 87 S 6 9 29.99 1016 10 16 0.02 0.51
4:53 am 04:53 Cloudy with Light Rain 55 12.8 51 10.6 87 87 W 13 20 30.04 1017 10 16 0.03 0.76
5:53 am 05:53 Cloudy 55 12.8 51 10.6 87 87 W 5 7 30.05 1018 10 16 0.01 0.25
6:27 am 06:27 Mostly Cloudy 55 12.8 51 10.6 87 87 WSW 6 9 30.09 1019 10 16 0.00 0.00
6:53 am 06:53 Cloudy 55 12.8 51 10.6 87 87 W 3 6 30.06 1018 10 16 0.00 0.00
7:18 am 07:18 Mostly Cloudy 55 12.8 51 10.6 87 87 W 3 6 30.09 1019 10 16 0.00 0.00
7:39 am 07:39 Mostly Cloudy 55 12.8 51 10.6 87 87 W 8 13 30.12 1020 10 16 0.00 0.00
7:53 am 07:53 Mostly Cloudy 55 12.8 51 10.6 87 87 VRB 5 7 30.07 1018 10 16 0.00 0.00
8:53 am 08:53 Partly Cloudy 53 11.7 46 7.8 77 77 NNW 3 6 30.10 1019 10 16 0.00 0.00
9:53 am 09:53 Mostly Sunny 53 11.7 45 7.2 74 74 NNW 6 9 30.13 1020 10 16 0.00 0.00
10:53 am 10:53 Mostly Sunny 53 11.7 46 7.8 77 77 WNW 7 11 30.13 1020 10 16 0.00 0.00
11:53 am 11:53 Sunny 53 11.7 46 7.8 77 77 NNE 3 6 30.10 1019 10 16 0.00 0.00
12:53 pm 12:53 Sunny 54 12.2 46 7.8 75 75 WNW 6 9 30.10 1019 10 16 0.00 0.00
1:53 pm 13:53 Sunny 54 12.2 46 7.8 75 75 Calm 30.10 1019 10 16 0.00 0.00
2:53 pm 14:53 Partly Cloudy 54 12.2 46 7.8 75 75 W 6 9 30.14 1021 10 16 0.00 0.00
3:53 pm 15:53 Sunny 54 12.2 46 7.8 75 75 N 5 7 30.11 1020 10 16 0.00 0.00
4:53 pm 16:53 Mostly Sunny 54 12.2 46 7.8 75 75 Calm 30.12 1020 10 16 0.00 0.00
5:53 pm 17:53 Cloudy 54 12.2 46 7.8 75 75 Calm 30.12 1020 10 16 0.00 0.00
6:53 pm 18:53 Cloudy with Light Rain 52 11.1 48 8.9 86 86 SE 10 17 30.09 1019 10 16 0.03 0.76
7:53 pm 19:53 Cloudy with Light Rain 53 11.7 49 9.4 86 86 NE 5 7 30.12 1020 10 16 0.04 1.02
8:42 pm 20:42 Cloudy 53 11.7 50 10 89 89 Calm 30.12 1020 10 16 0.00 0.03
8:53 pm 20:53 Cloudy with Light Rain 53 11.7 50 10 89 89 E 3 6 30.11 1020 10 16 0.00 0.03
9:53 pm 21:53 Cloudy 54 12.2 51 10.6 90 90 N 3 6 30.13 1020 9 14 0.01 0.25
10:53 pm 22:53 Cloudy with Light Rain 54 12.2 51 10.6 90 90 SE 3 6 30.11 1020 7 11 0.03 0.76
11:53 pm 23:53 Cloudy with Light Rain 54 12.2 51 10.6 90 90 SE 12 19 30.07 1018 6 10 0.03 0.76

Powered by AerisWeather